| time (UTC) | temp C | wind direction | speed KPH | gust KPH | rain 1hr cm | rain 24hr cm | rain mn cm | humidity % | barometer mb |
| 20260831021533 | 25 | 223 | 0.0 | 0.0 | 0.00 | 0.00 | 0.00 | 91 | 1017.4 |
| 20260831020033 | 25 | 223 | 0.0 | 0.0 | 0.00 | 0.00 | 0.00 | 91 | 1017.2 |
| 20260831014537 | 26 | 223 | 0.0 | 0.0 | 0.00 | 0.00 | 0.00 | 89 | 1017.2 |
| 20260831013041 | 26 | 223 | 0.0 | 0.0 | 0.00 | 0.00 | 0.00 | 88 | 1017.0 |
| 20260831011531 | 26 | 223 | 0.0 | 0.0 | 0.00 | 0.00 | 0.00 | 87 | 1016.8 |
| 20260831010030 | 27 | 223 | 0.0 | 0.0 | 0.00 | 0.00 | 0.00 | 86 | 1016.6 |
| 20260831004530 | 27 | 223 | 0.0 | 0.0 | 0.00 | 0.00 | 0.00 | 84 | 1016.5 |
| 20260831003031 | 28 | 223 | 0.0 | 0.0 | 0.00 | 0.00 | 0.00 | 81 | 1016.5 |
| 20260831001535 | 28 | 223 | 0.0 | 0.0 | 0.00 | 0.00 | 0.00 | 79 | 1016.5 |
| 20260831000029 | 29 | 223 | 0.0 | 0.0 | 0.00 | 0.00 | 0.00 | 78 | 1016.5 |
| 20260830234531 | 30 | 223 | 0.0 | 0.0 | 0.00 | 0.00 | 0.00 | 74 | 1016.4 |
| 20260830233028 | 31 | 223 | 0.0 | 1.6 | 0.00 | 0.00 | 0.00 | 72 | 1016.5 |
| 20260830231526 | 31 | 222 | 0.0 | 1.6 | 0.00 | 0.00 | 0.00 | 71 | 1016.3 |
| 20260830230028 | 32 | 253 | 0.0 | 3.2 | 0.00 | 0.00 | 0.00 | 68 | 1016.3 |
| 20260830224526 | 32 | 258 | 0.0 | 3.2 | 0.00 | 0.00 | 0.00 | 67 | 1016.4 |
| 20260830223026 | 33 | 245 | 0.0 | 1.6 | 0.00 | 0.00 | 0.00 | 68 | 1016.3 |
| 20260830221522 | 32 | 250 | 0.0 | 3.2 | 0.00 | 0.00 | 0.00 | 68 | 1016.3 |
| 20260830220022 | 33 | 228 | 0.0 | 6.4 | 0.00 | 0.00 | 0.00 | 66 | 1016.3 |
| 20260830214522 | 33 | 270 | 0.0 | 1.6 | 0.00 | 0.00 | 0.00 | 68 | 1016.5 |
| 20260830213020 | 33 | 245 | 0.0 | 3.2 | 0.00 | 0.00 | 0.00 | 65 | 1016.4 |
| 20260830211520 | 33 | 288 | 0.0 | 4.8 | 0.00 | 0.00 | 0.00 | 67 | 1016.5 |
| 20260830210018 | 33 | 243 | 1.6 | 4.8 | 0.00 | 0.00 | 0.00 | 65 | 1016.6 |
| 20260830204517 | 32 | 94 | 0.0 | 3.2 | 0.00 | 0.00 | 0.00 | 67 | 1016.8 |
| 20260830203023 | 33 | 294 | 0.0 | 6.4 | 0.00 | 0.00 | 0.00 | 68 | 1016.9 |
| 20260830201514 | 33 | 257 | 1.6 | 8.0 | 0.00 | 0.00 | 0.00 | 64 | 1017.1 |
| 20260830200011 | 34 | 359 | 1.6 | 6.4 | 0.00 | 0.00 | 0.00 | 63 | 1017.3 |
| 20260830194510 | 34 | 267 | 0.0 | 6.4 | 0.00 | 0.00 | 0.00 | 61 | 1017.6 |
| 20260830193007 | 33 | 231 | 3.2 | 6.4 | 0.00 | 0.00 | 0.00 | 58 | 1017.8 |
| 20260830191505 | 34 | 354 | 0.0 | 4.8 | 0.00 | 0.00 | 0.00 | 60 | 1018.1 |
| 20260830190100 | 33 | 207 | 0.0 | 4.8 | 0.00 | 0.00 | 0.00 | 61 | 1018.4 |
| 20260830184557 | 32 | 224 | 0.0 | 3.2 | 0.00 | 0.00 | 0.00 | 66 | 1018.3 |
| 20260830183107 | 32 | 238 | 3.2 | 6.4 | 0.00 | 0.00 | 0.00 | 62 | 1018.3 |
| 20260830181553 | 32 | 240 | 3.2 | 9.7 | 0.00 | 0.00 | 0.00 | 66 | 1018.5 |
| 20260830180053 | 32 | 236 | 1.6 | 6.4 | 0.00 | 0.00 | 0.00 | 65 | 1018.7 |
| 20260830174555 | 32 | 104 | 1.6 | 6.4 | 0.00 | 0.00 | 0.00 | 68 | 1018.9 |
| 20260830173106 | 32 | 222 | 4.8 | 11.3 | 0.00 | 0.00 | 0.00 | 65 | 1019.0 |
| 20260830171551 | 32 | 217 | 1.6 | 8.0 | 0.00 | 0.00 | 0.00 | 70 | 1019.0 |
| 20260830170054 | 32 | 212 | 0.0 | 6.4 | 0.00 | 0.00 | 0.00 | 68 | 1019.2 |
| 20260830164552 | 32 | 161 | 9.7 | 20.9 | 0.00 | 0.00 | 0.00 | 66 | 1019.2 |
| 20260830163054 | 32 | 226 | 0.0 | 8.0 | 0.00 | 0.00 | 0.00 | 68 | 1019.2 |
| 20260830161559 | 32 | 223 | 3.2 | 9.7 | 0.00 | 0.00 | 0.00 | 69 | 1019.4 |
| 20260830160039 | 31 | 204 | 0.0 | 9.7 | 0.00 | 0.00 | 0.00 | 71 | 1019.5 |
| 20260830154537 | 31 | 217 | 3.2 | 9.7 | 0.00 | 0.00 | 0.00 | 72 | 1019.6 |
| 20260830153044 | 30 | 248 | 1.6 | 8.0 | 0.00 | 0.00 | 0.00 | 74 | 1019.6 |
| 20260830151531 | 30 | 177 | 1.6 | 4.8 | 0.00 | 0.00 | 0.00 | 74 | 1019.5 |
| 20260830150027 | 30 | 224 | 1.6 | 12.9 | 0.00 | 0.00 | 0.00 | 78 | 1019.5 |
| 20260830144523 | 29 | 226 | 0.0 | 8.0 | 0.00 | 0.00 | 0.00 | 80 | 1019.6 |
| 20260830143021 | 28 | 215 | 0.0 | 3.2 | 0.00 | 0.00 | 0.00 | 83 | 1019.5 |
| 20260830141519 | 26 | 233 | 0.0 | 9.7 | 0.00 | 0.00 | 0.00 | 89 | 1019.6 |
| 20260830140012 | 25 | 190 | 0.0 | 3.2 | 0.00 | 0.00 | 0.00 | 93 | 1019.6 |
| 20260830134512 | 23 | 223 | 0.0 | 1.6 | 0.00 | 0.00 | 0.00 | 99 | 1019.6 |
| 20260830133003 | 22 | 237 | 0.0 | 1.6 | 0.00 | 0.00 | 0.00 | 100 | 1019.6 |
| 20260830131616 | 21 | 273 | 0.0 | 0.0 | 0.00 | 0.00 | 0.00 | 100 | 1019.5 |
| 20260830130054 | 21 | 273 | 0.0 | 0.0 | 0.00 | 0.00 | 0.00 | 100 | 1019.4 |
| 20260830124553 | 20 | 272 | 0.0 | 0.0 | 0.00 | 0.00 | 0.00 | 100 | 1019.5 |
| 20260830123053 | 20 | 273 | 0.0 | 0.0 | 0.00 | 0.00 | 0.00 | 100 | 1019.3 |
| 20260830121553 | 19 | 272 | 0.0 | 0.0 | 0.00 | 0.00 | 0.00 | 100 | 1019.2 |
| 20260830120052 | 19 | 272 | 0.0 | 0.0 | 0.00 | 0.00 | 0.00 | 99 | 1019.0 |
| 20260830114551 | 19 | 273 | 0.0 | 0.0 | 0.00 | 0.00 | 0.00 | 99 | 1018.8 |
| 20260830113047 | 18 | 272 | 0.0 | 0.0 | 0.00 | 0.00 | 0.00 | 99 | 1018.7 |
| 20260830111551 | 18 | 272 | 0.0 | 0.0 | 0.00 | 0.00 | 0.00 | 99 | 1018.5 |
| 20260830110047 | 18 | 272 | 0.0 | 0.0 | 0.00 | 0.00 | 0.00 | 99 | 1018.3 |
| 20260830104545 | 19 | 272 | 0.0 | 0.0 | 0.00 | 0.00 | 0.00 | 99 | 1018.2 |
| 20260830103045 | 19 | 273 | 0.0 | 0.0 | 0.00 | 0.00 | 0.00 | 99 | 1018.3 |
| 20260830101544 | 19 | 273 | 0.0 | 0.0 | 0.00 | 0.00 | 0.00 | 99 | 1018.2 |
| 20260830100043 | 19 | 273 | 0.0 | 0.0 | 0.00 | 0.00 | 0.00 | 99 | 1018.2 |
| 20260830094543 | 19 | 273 | 0.0 | 0.0 | 0.00 | 0.00 | 0.00 | 99 | 1018.1 |
| 20260830093044 | 19 | 273 | 0.0 | 0.0 | 0.00 | 0.00 | 0.00 | 98 | 1018.1 |
| 20260830091546 | 19 | 272 | 0.0 | 0.0 | 0.00 | 0.00 | 0.00 | 99 | 1018.2 |
| 20260830090040 | 19 | 273 | 0.0 | 0.0 | 0.00 | 0.00 | 0.00 | 98 | 1018.1 |
| 20260830084540 | 19 | 273 | 0.0 | 0.0 | 0.00 | 0.00 | 0.00 | 98 | 1018.1 |
| 20260830083051 | 19 | 273 | 0.0 | 0.0 | 0.00 | 0.00 | 0.00 | 98 | 1018.1 |
| 20260830081538 | 19 | 272 | 0.0 | 0.0 | 0.00 | 0.00 | 0.00 | 98 | 1018.2 |
| 20260830080035 | 20 | 273 | 0.0 | 0.0 | 0.00 | 0.00 | 0.00 | 98 | 1018.1 |
| 20260830074541 | 20 | 272 | 0.0 | 0.0 | 0.00 | 0.00 | 0.00 | 98 | 1018.2 |
| 20260830073035 | 20 | 273 | 0.0 | 0.0 | 0.00 | 0.00 | 0.00 | 98 | 1018.3 |
| 20260830071535 | 20 | 273 | 0.0 | 0.0 | 0.00 | 0.00 | 0.00 | 98 | 1018.4 |
| 20260830070031 | 20 | 273 | 0.0 | 0.0 | 0.00 | 0.00 | 0.00 | 97 | 1018.5 |
| 20260830064535 | 20 | 272 | 0.0 | 0.0 | 0.00 | 0.00 | 0.00 | 97 | 1018.5 |
| 20260830063030 | 20 | 273 | 0.0 | 0.0 | 0.00 | 0.00 | 0.00 | 97 | 1018.4 |
| 20260830061532 | 20 | 273 | 0.0 | 0.0 | 0.00 | 0.00 | 0.00 | 97 | 1018.6 |
| 20260830060025 | 20 | 273 | 0.0 | 1.6 | 0.00 | 0.00 | 0.00 | 97 | 1018.7 |
| 20260830054525 | 20 | 273 | 0.0 | 1.6 | 0.00 | 0.00 | 0.00 | 96 | 1018.7 |
| 20260830053022 | 20 | 273 | 0.0 | 0.0 | 0.00 | 0.00 | 0.00 | 96 | 1018.5 |
| 20260830051518 | 20 | 273 | 0.0 | 0.0 | 0.00 | 0.00 | 0.00 | 96 | 1018.4 |
| 20260830050015 | 21 | 273 | 0.0 | 0.0 | 0.00 | 0.00 | 0.00 | 96 | 1018.3 |
| 20260830044514 | 21 | 273 | 0.0 | 0.0 | 0.00 | 0.00 | 0.00 | 96 | 1018.3 |
| 20260830043015 | 21 | 273 | 0.0 | 0.0 | 0.00 | 0.00 | 0.00 | 95 | 1018.3 |
| 20260830041514 | 21 | 273 | 0.0 | 0.0 | 0.00 | 0.00 | 0.00 | 95 | 1018.3 |
| 20260830040021 | 21 | 272 | 0.0 | 0.0 | 0.00 | 0.00 | 0.00 | 95 | 1018.3 |
| 20260830034513 | 21 | 273 | 0.0 | 0.0 | 0.00 | 0.00 | 0.00 | 94 | 1018.2 |
| 20260830033012 | 21 | 273 | 0.0 | 0.0 | 0.00 | 0.00 | 0.00 | 94 | 1018.1 |
| 20260830031512 | 22 | 273 | 0.0 | 0.0 | 0.00 | 0.00 | 0.00 | 93 | 1018.1 |
| 20260830030012 | 22 | 273 | 0.0 | 0.0 | 0.00 | 0.00 | 0.00 | 93 | 1017.9 |
| 20260830024518 | 22 | 272 | 0.0 | 0.0 | 0.00 | 0.00 | 0.00 | 92 | 1017.9 |
| 20260830023011 | 22 | 315 | 0.0 | 0.0 | 0.00 | 0.00 | 0.00 | 91 | 1017.9 |